period_start,C,m1,H,J0,J1,J2,J3,J4,J5,JA,JB,JC,JD,JJ,JK,JN,#
2017-03-24 00:01:21,0.23,12.84,0.00,24.36,27.48,31.01,14.47,51.49,1015.14,2023.96,971.21,1278.97,1433.53,600.21,592.70,46.87,0000 0000 0000 0000 000000
2017-03-24 00:06:22,0.24,12.85,0.00,24.37,27.50,31.06,14.43,51.66,1015.14,2023.83,970.01,1278.11,1432.56,600.10,592.49,46.92,0000 0000 0000 0000 000000
2017-03-24 00:11:23,0.32,12.87,0.00,24.37,27.50,31.18,14.42,51.58,1015.15,2023.91,968.90,1277.35,1431.66,599.80,592.25,46.98,0000 0000 0000 0000 000000
2017-03-24 00:16:24,0.26,12.88,0.00,24.21,27.52,31.29,14.43,51.52,1015.15,2023.84,967.78,1276.57,1430.74,599.91,592.57,47.03,0000 0000 0000 0000 000000
2017-03-24 00:21:26,0.25,12.89,0.00,24.14,27.52,31.26,14.48,51.51,1015.15,2023.83,966.66,1275.86,1429.80,600.33,593.04,47.08,0000 0000 0000 0000 000000
2017-03-24 00:26:27,0.28,12.91,0.00,24.09,27.52,31.17,14.47,51.53,1015.14,2023.88,965.53,1275.03,1428.90,599.80,592.80,47.13,0000 0000 0000 0000 000000
2017-03-24 00:31:29,0.26,12.92,0.00,24.05,27.50,31.13,14.48,51.67,1015.13,2023.87,964.43,1274.20,1427.95,599.82,592.87,47.18,0000 0000 0000 0000 000000
2017-03-24 00:36:30,0.29,12.94,0.00,24.06,27.50,31.10,14.50,51.58,1015.14,2023.92,963.34,1273.39,1427.04,600.12,593.23,47.23,0000 0000 0000 0000 000000
2017-03-24 00:41:31,0.25,12.95,0.00,24.06,27.50,31.07,14.46,51.61,1015.14,2023.85,962.23,1272.63,1426.12,599.90,592.95,47.28,0000 0000 0000 0000 000000
2017-03-24 00:46:32,0.22,12.96,0.00,24.05,27.48,31.10,14.48,51.58,1015.15,2023.84,961.10,1271.87,1425.19,600.05,593.10,47.33,0000 0000 0000 0000 000000
2017-03-24 00:51:34,0.25,12.98,0.00,24.05,27.47,31.16,14.52,51.64,1015.15,2023.79,960.04,1271.05,1424.24,600.00,593.03,47.38,0000 0000 0000 0000 000000
2017-03-24 00:56:35,0.30,12.99,0.00,24.10,27.47,31.13,14.49,51.47,1015.16,2023.91,959.05,1270.19,1423.37,599.59,592.57,47.43,0000 0000 0000 0000 000000
2017-03-24 01:01:36,0.25,13.00,0.00,24.45,27.49,31.04,14.54,51.41,1015.20,2023.91,958.08,1269.43,1422.46,600.41,592.76,47.48,0000 0000 0000 0000 000000
2017-03-24 01:06:37,0.20,13.01,0.00,24.40,27.50,31.00,14.44,51.48,1015.27,2023.65,957.05,1268.64,1421.53,599.84,592.40,47.53,0000 0000 0000 0000 000000
2017-03-24 01:11:39,0.24,13.03,0.00,24.32,27.51,31.13,14.52,51.57,1015.53,2023.53,955.94,1267.87,1420.61,600.17,592.90,47.58,0000 0000 0000 0000 000000
2017-03-24 01:16:40,0.26,13.04,0.00,24.45,27.52,31.20,14.40,51.52,1015.61,2023.45,954.85,1267.03,1419.65,599.66,592.19,47.63,0000 0000 0000 0000 000000
2017-03-24 01:21:41,0.25,13.05,0.00,24.33,27.53,31.22,14.50,51.43,1015.59,2023.18,953.73,1266.15,1418.71,600.24,593.00,47.68,0000 0000 0000 0000 000000
2017-03-24 01:26:43,0.27,13.06,0.00,24.25,27.54,31.21,14.53,51.58,1015.62,2023.11,952.65,1265.42,1417.84,600.19,592.92,47.73,0000 0000 0000 0000 000000
2017-03-24 01:31:44,0.28,13.08,0.00,24.21,27.54,31.13,14.47,51.48,1015.63,2023.26,951.62,1264.71,1416.95,599.89,592.92,47.78,0000 0000 0000 0000 000000
2017-03-24 01:36:45,0.26,13.09,0.00,24.21,27.53,31.14,14.44,51.47,1015.64,2023.48,950.52,1263.98,1416.05,599.61,592.70,47.83,0000 0000 0000 0000 000000
2017-03-24 01:41:46,0.25,13.11,0.00,24.22,27.52,31.13,14.44,51.45,1015.64,2023.36,949.45,1263.12,1415.14,600.04,593.13,47.89,0000 0000 0000 0000 000000
2017-03-24 01:46:48,0.29,13.12,0.00,24.42,27.52,31.13,14.41,51.34,1015.64,2023.26,948.33,1262.28,1414.19,599.59,592.31,47.94,0000 0000 0000 0000 000000
2017-03-24 01:51:50,0.25,13.13,0.00,24.63,27.54,30.98,14.43,51.36,1015.64,2023.23,947.34,1261.50,1413.28,600.03,592.29,47.99,0000 0000 0000 0000 000000
2017-03-24 01:56:51,0.25,13.15,0.00,24.38,27.55,31.04,14.42,51.43,1015.65,2023.10,946.22,1260.73,1412.29,599.75,592.35,48.04,0000 0000 0000 0000 000000
2017-03-24 02:01:52,0.24,13.16,0.00,24.53,27.55,31.07,14.48,51.47,1015.68,2023.08,945.13,1259.92,1411.38,600.19,592.58,48.09,0000 0000 0000 0000 000000
2017-03-24 02:06:54,0.27,13.18,0.00,24.53,27.55,31.08,14.42,51.46,1015.77,2023.06,944.11,1259.07,1410.50,599.83,592.33,48.14,0000 0000 0000 0000 000000
2017-03-24 02:11:55,0.27,13.19,0.00,24.40,27.55,31.18,14.49,51.51,1015.84,2023.06,943.10,1258.30,1409.62,600.03,592.82,48.19,0000 0000 0000 0000 000000
2017-03-24 02:16:57,0.25,13.20,0.00,24.36,27.55,31.14,14.49,51.51,1015.83,2023.07,942.02,1257.61,1408.78,600.11,593.08,48.24,0000 0000 0000 0000 000000
2017-03-24 02:21:58,0.22,13.21,0.00,24.37,27.55,31.11,14.53,51.38,1015.80,2023.06,940.95,1256.90,1407.94,600.06,592.86,48.29,0000 0000 0000 0000 000000
2017-03-24 02:26:59,0.27,13.23,0.00,24.67,27.55,31.03,14.45,51.35,1015.92,2023.06,939.92,1256.08,1407.05,600.45,592.72,48.34,0000 0000 0000 0000 000000
2017-03-24 02:32:01,0.30,13.24,0.00,24.52,27.55,30.96,14.49,51.39,1016.09,2023.08,938.82,1255.33,1406.17,600.22,592.86,48.39,0000 0000 0000 0000 000000
2017-03-24 02:37:02,0.31,13.25,0.00,24.56,27.55,31.00,14.45,51.48,1016.08,2023.03,937.67,1254.48,1405.22,599.80,592.42,48.44,0000 0000 0000 0000 000000
2017-03-24 02:42:03,0.22,13.27,0.00,24.66,27.55,30.97,14.46,51.47,1016.06,2023.03,936.68,1253.81,1404.36,600.22,592.60,48.49,0000 0000 0000 0000 000000
2017-03-24 02:47:05,0.24,13.28,0.00,24.69,27.55,30.92,14.41,51.47,1016.09,2023.03,935.74,1252.99,1403.50,599.95,592.29,48.54,0000 0000 0000 0000 000000
2017-03-24 02:52:06,0.29,13.30,0.00,24.73,27.55,30.90,14.51,51.42,1016.11,2023.02,934.70,1252.14,1402.60,600.14,592.46,48.59,0000 0000 0000 0000 000000
2017-03-24 02:57:07,0.28,13.31,0.00,24.75,27.55,30.88,14.35,51.46,1016.13,2023.02,933.65,1251.43,1401.71,599.87,592.12,48.64,0000 0000 0000 0000 000000
2017-03-24 03:02:09,0.24,13.32,0.00,24.74,27.55,30.86,14.43,51.38,1016.13,2023.03,932.65,1250.67,1400.82,599.92,592.17,48.69,0000 0000 0000 0000 000000
2017-03-24 03:07:10,0.23,13.33,0.00,24.74,27.54,30.81,14.44,51.35,1016.13,2023.03,931.60,1249.93,1399.97,600.10,592.31,48.75,0000 0000 0000 0000 000000
2017-03-24 03:12:11,0.28,13.35,0.00,24.79,27.53,30.80,14.36,51.27,1016.13,2023.03,930.59,1249.11,1399.09,600.08,592.25,48.80,0000 0000 0000 0000 000000
2017-03-24 03:17:13,0.27,13.36,0.00,24.79,27.52,30.79,14.43,51.33,1016.13,2023.03,929.61,1248.39,1398.18,599.79,591.94,48.85,0000 0000 0000 0000 000000
2017-03-24 03:22:14,0.25,13.37,0.00,24.80,27.52,30.77,14.49,51.40,1016.13,2023.04,928.56,1247.79,1397.34,600.29,592.48,48.90,0000 0000 0000 0000 000000
2017-03-24 03:27:15,0.26,13.39,0.00,24.85,27.52,30.75,14.40,51.36,1016.13,2023.05,927.55,1246.97,1396.47,600.20,592.27,48.95,0000 0000 0000 0000 000000
2017-03-24 03:32:17,0.29,13.40,0.00,24.86,27.50,30.75,14.36,51.38,1016.13,2023.04,926.35,1246.11,1395.57,600.06,592.19,49.00,0000 0000 0000 0000 000000
2017-03-24 03:37:17,0.44,13.42,0.00,24.87,27.50,30.73,14.44,51.47,1016.14,2023.11,924.76,1245.00,1394.39,600.09,592.01,49.05,0000 0000 0000 0000 000000
2017-03-24 03:42:19,0.42,13.44,0.00,24.85,27.50,30.73,14.48,51.47,1016.14,2023.16,923.21,1243.77,1392.90,600.16,592.17,49.10,0000 0000 0000 0000 000000
2017-03-24 03:47:20,0.46,13.47,0.00,24.84,27.49,30.71,14.47,51.45,1016.20,2023.13,921.39,1242.45,1391.43,600.45,592.55,49.15,0000 0000 0000 0000 000000
2017-03-24 03:52:22,1.00,13.50,0.00,24.86,27.47,30.71,14.35,51.25,1016.23,2023.08,918.20,1239.92,1388.60,599.89,592.00,49.20,0000 0000 0000 0000 000000
2017-03-24 03:57:23,1.68,13.58,0.10,24.86,27.47,30.68,14.43,51.42,1016.48,2023.06,912.45,1235.19,1383.43,599.91,592.18,49.25,0000 0000 0000 0000 000000
2017-03-24 04:02:25,1.66,13.66,1.00,24.87,27.47,30.67,14.41,51.46,1016.50,2023.08,906.15,1230.49,1378.20,600.27,592.58,49.30,0000 0000 0000 0000 000000
2017-03-24 04:07:26,1.31,13.74,1.00,24.87,27.45,30.66,14.40,51.44,1016.55,2023.07,900.97,1226.66,1373.97,599.82,592.21,49.35,0000 0000 0000 0000 000000
2017-03-24 04:12:27,1.09,13.80,1.00,24.86,27.45,30.67,14.43,51.44,1016.50,2023.03,896.82,1223.36,1370.27,600.00,592.16,49.40,0000 0000 0000 0000 000000
2017-03-24 04:17:28,0.89,13.85,1.00,24.88,27.44,30.67,14.47,51.30,1016.49,2023.05,893.35,1220.73,1367.38,600.14,592.29,49.45,0000 0000 0000 0000 000000
2017-03-24 04:22:30,0.69,13.88,1.00,24.91,27.42,30.64,14.46,51.47,1016.48,2023.09,890.56,1218.82,1365.26,600.36,592.50,49.50,0000 0000 0000 0000 000000
2017-03-24 04:27:31,0.49,13.91,1.00,24.90,27.42,30.64,14.48,51.49,1016.51,2023.23,888.67,1217.59,1363.75,600.17,592.38,49.55,0000 0000 0000 0000 000000
2017-03-24 04:32:32,0.36,13.93,1.00,24.92,27.42,30.63,14.35,51.63,1016.54,2023.17,887.32,1216.47,1362.46,600.05,592.19,49.60,0000 0000 0000 0000 000000
2017-03-24 04:37:34,0.44,13.95,1.00,24.91,27.40,30.61,14.45,51.56,1016.60,2023.19,885.71,1215.33,1361.14,600.02,592.24,49.66,0000 0000 0000 0000 000000
2017-03-24 04:42:35,0.40,13.98,1.00,24.91,27.40,30.61,14.37,51.56,1016.61,2023.27,884.18,1214.27,1359.74,599.70,591.94,49.71,0000 0000 0000 0000 000000
2017-03-24 04:47:36,0.48,14.00,1.00,24.95,27.40,30.62,14.46,51.45,1016.60,2023.44,882.66,1213.04,1358.36,600.11,592.28,49.76,0000 0000 0000 0000 000000
2017-03-24 04:52:38,0.43,14.02,1.00,24.97,27.40,30.60,14.41,51.56,1016.60,2023.40,881.04,1211.77,1356.93,600.18,592.22,49.81,0000 0000 0000 0000 000000
2017-03-24 04:57:39,0.45,14.05,0.87,24.98,27.40,30.59,14.34,51.54,1016.62,2023.50,879.58,1210.59,1355.61,599.85,592.01,49.86,0000 0000 0000 0000 000000
2017-03-24 05:02:40,0.41,14.07,0.00,24.98,27.40,30.58,14.40,51.42,1016.62,2023.47,877.95,1209.41,1354.24,600.32,592.34,49.91,0000 0000 0000 0000 000000
2017-03-24 05:07:41,0.44,14.09,0.00,24.98,27.40,30.58,14.44,51.41,1016.62,2023.67,876.52,1208.25,1352.87,600.05,592.17,49.96,0000 0000 0000 0000 000000
2017-03-24 05:12:42,0.44,14.11,0.00,24.99,27.40,30.56,14.38,51.57,1016.62,2023.73,874.98,1207.01,1351.54,600.10,592.17,50.01,0000 0000 0000 0000 000000
2017-03-24 05:17:44,0.43,14.14,0.00,24.98,27.40,30.56,14.34,51.59,1016.62,2023.59,873.44,1205.75,1350.12,599.59,591.63,50.06,0000 0000 0000 0000 000000
2017-03-24 05:22:45,0.43,14.16,0.00,24.99,27.40,30.55,14.42,51.62,1016.63,2023.44,871.87,1204.50,1348.69,599.91,591.98,50.11,0000 0000 0000 0000 000000
2017-03-24 05:27:47,0.44,14.18,0.00,24.98,27.40,30.53,14.39,51.59,1016.62,2023.57,870.31,1203.29,1347.30,599.77,591.84,50.16,0000 0000 0000 0000 000000
2017-03-24 05:32:48,0.47,14.20,0.00,24.99,27.40,30.51,14.45,51.59,1016.62,2023.69,868.83,1201.99,1345.80,600.13,592.17,50.21,0000 0000 0000 0000 000000
2017-03-24 05:37:50,0.42,14.23,0.00,24.98,27.40,30.52,14.42,51.45,1016.63,2023.54,867.33,1200.64,1344.34,600.24,592.30,50.26,0000 0000 0000 0000 000000
2017-03-24 05:42:51,0.46,14.25,0.00,25.00,27.39,30.51,14.39,51.46,1016.63,2023.28,865.66,1199.30,1342.86,599.74,591.80,50.31,0000 0000 0000 0000 000000
2017-03-24 05:47:52,0.42,14.27,0.00,25.00,27.37,30.50,14.36,51.56,1016.64,2023.16,864.08,1197.90,1341.45,600.01,592.07,50.36,0000 0000 0000 0000 000000
2017-03-24 05:52:53,0.52,14.30,0.00,25.00,27.37,30.49,14.40,51.52,1016.63,2023.24,862.40,1196.62,1339.91,600.04,592.14,50.41,0000 0000 0000 0000 000000
2017-03-24 05:57:54,0.50,14.32,0.00,24.99,27.36,30.51,14.46,51.45,1016.64,2023.29,860.67,1195.32,1338.48,600.17,592.25,50.46,0000 0000 0000 0000 000000
2017-03-24 06:02:56,0.57,14.35,0.00,24.99,27.35,30.51,14.38,51.46,1016.64,2023.39,858.96,1193.76,1336.84,600.05,592.20,50.51,0000 0000 0000 0000 000000
2017-03-24 06:07:57,0.46,14.38,0.00,25.01,27.35,30.49,14.45,51.46,1016.69,2023.39,857.14,1192.35,1335.29,599.90,591.99,50.57,0000 0000 0000 0000 000000
2017-03-24 06:12:59,0.50,14.40,0.00,25.00,27.32,30.48,14.39,51.52,1016.95,2023.29,855.49,1190.96,1333.69,599.91,592.16,50.62,0000 0000 0000 0000 000000
2017-03-24 06:18:00,0.53,14.43,0.00,24.99,27.32,30.47,14.46,51.47,1016.93,2023.36,853.73,1189.64,1332.22,600.17,592.49,50.67,0000 0000 0000 0000 000000
2017-03-24 06:23:01,0.49,14.45,0.00,25.00,27.30,30.48,14.41,51.44,1016.94,2023.51,852.10,1188.35,1330.67,600.25,592.48,50.72,0000 0000 0000 0000 000000
2017-03-24 06:28:03,0.48,14.48,0.23,25.00,27.30,30.48,14.37,51.40,1017.06,2023.50,850.44,1187.01,1329.20,600.12,592.48,50.77,0000 0000 0000 0000 000000
2017-03-24 06:33:04,0.51,14.50,1.00,25.00,27.28,30.48,14.40,51.38,1017.10,2023.49,848.74,1185.70,1327.69,600.20,592.52,50.82,0000 0000 0000 0000 000000
2017-03-24 06:38:06,0.50,14.53,1.00,25.01,27.27,30.47,14.37,51.48,1017.10,2023.71,847.17,1184.46,1326.27,600.30,592.48,50.87,0000 0000 0000 0000 000000
2017-03-24 06:43:07,0.50,14.55,1.00,25.03,27.25,30.47,14.45,51.50,1017.10,2023.87,845.53,1183.16,1324.77,600.09,592.35,50.92,0000 0000 0000 0000 000000
2017-03-24 06:48:09,0.53,14.58,1.00,25.02,27.25,30.48,14.38,51.47,1017.10,2023.93,843.80,1181.82,1323.38,599.77,592.02,50.97,0000 0000 0000 0000 000000
2017-03-24 06:53:10,0.51,14.61,1.00,25.01,27.24,30.46,14.37,51.37,1017.12,2023.95,842.06,1180.56,1321.83,600.10,592.28,51.02,0000 0000 0000 0000 000000
2017-03-24 06:58:11,0.46,14.63,1.00,25.03,27.22,30.46,14.43,51.34,1017.14,2023.96,840.38,1179.27,1320.39,600.09,592.46,51.07,0000 0000 0000 0000 000000
2017-03-24 07:03:12,0.53,14.66,1.00,25.02,27.22,30.45,14.41,51.44,1017.22,2023.96,838.68,1177.90,1318.86,600.06,592.27,51.12,0000 0000 0000 0000 000000
2017-03-24 07:08:13,0.59,14.68,1.00,25.05,27.22,30.46,14.37,51.43,1017.26,2023.97,836.66,1176.51,1317.29,599.74,592.07,51.17,0000 0000 0000 0000 000000
2017-03-24 07:13:15,0.58,14.72,1.00,24.94,27.21,30.44,14.38,51.42,1017.38,2023.98,834.51,1175.03,1315.63,600.07,592.74,51.22,0000 0000 0000 0000 000000
2017-03-24 07:18:16,0.56,14.74,1.00,24.96,27.20,30.43,14.39,51.48,1017.47,2023.99,832.62,1173.67,1314.06,600.05,592.58,51.27,0000 0000 0000 0000 000000
2017-03-24 07:23:17,0.48,14.77,1.00,25.02,27.20,30.43,14.43,51.33,1017.56,2023.98,830.93,1172.33,1312.53,600.11,592.69,51.32,0000 0000 0000 0000 000000
2017-03-24 07:28:18,0.44,14.79,1.00,25.01,27.20,30.42,14.36,51.42,1017.56,2023.99,829.43,1171.05,1311.05,599.68,592.18,51.37,0000 0000 0000 0000 000000
2017-03-24 07:33:20,0.52,14.82,1.00,24.96,27.18,30.42,14.44,51.49,1017.55,2023.99,827.82,1169.83,1309.68,600.06,592.71,51.43,0000 0000 0000 0000 000000
2017-03-24 07:38:21,0.43,14.84,1.00,24.99,27.17,30.42,14.38,51.42,1017.50,2023.99,826.44,1168.69,1308.40,600.02,592.57,51.48,0000 0000 0000 0000 000000
2017-03-24 07:43:23,0.40,14.86,1.00,24.99,27.17,30.40,14.38,51.52,1017.51,2023.99,825.01,1167.57,1307.10,599.79,592.35,51.53,0000 0000 0000 0000 000000
2017-03-24 07:48:24,0.48,14.89,1.00,25.01,27.16,30.39,14.42,51.42,1017.57,2023.99,823.62,1166.40,1305.78,599.87,592.44,51.58,0000 0000 0000 0000 000000
2017-03-24 07:53:25,0.46,14.91,1.00,25.00,27.15,30.41,14.37,51.49,1017.59,2023.99,822.03,1165.20,1304.47,599.96,592.55,51.63,0000 0000 0000 0000 000000
2017-03-24 07:58:26,0.69,14.94,0.70,24.98,27.15,30.39,14.44,51.42,1017.59,2023.99,819.71,1163.74,1302.79,600.01,592.69,51.68,0000 0000 0000 0000 000000
2017-03-24 08:03:28,0.57,14.97,0.00,25.00,27.14,30.38,14.40,51.45,1017.59,2023.99,817.42,1162.37,1301.23,600.05,592.73,51.73,0000 0000 0000 0000 000000
2017-03-24 08:08:29,0.53,15.00,0.00,24.98,27.12,30.38,14.32,51.43,1017.59,2023.99,815.57,1161.13,1299.73,599.94,592.53,51.78,0000 0000 0000 0000 000000
2017-03-24 08:13:30,0.52,15.03,0.00,24.98,27.12,30.39,14.48,51.51,1017.60,2023.99,813.77,1159.89,1298.42,600.20,592.84,51.83,0000 0000 0000 0000 000000
2017-03-24 08:18:31,0.52,15.05,0.00,24.95,27.12,30.37,14.41,51.37,1017.64,2023.99,812.01,1158.64,1296.97,600.10,592.83,51.88,0000 0000 0000 0000 000000
2017-03-24 08:23:33,0.52,15.08,0.00,24.98,27.11,30.38,14.44,51.55,1017.66,2023.99,810.21,1157.47,1295.61,600.00,592.76,51.93,0000 0000 0000 0000 000000
2017-03-24 08:28:34,0.54,15.11,0.33,24.97,27.10,30.38,14.41,51.55,1017.68,2024.00,808.27,1156.19,1294.16,599.85,592.52,51.98,0000 0000 0000 0000 000000
2017-03-24 08:33:36,0.71,15.14,1.00,24.98,27.10,30.37,14.46,51.50,1017.97,2024.00,806.03,1154.70,1292.50,600.35,593.20,52.03,0000 0000 0000 0000 000000
2017-03-24 08:38:37,0.63,15.17,1.00,24.98,27.10,30.38,14.40,51.49,1018.07,2024.00,803.75,1153.17,1290.76,599.90,592.72,52.08,0000 0000 0000 0000 000000
2017-03-24 08:43:38,0.67,15.21,1.00,24.98,27.10,30.37,14.35,51.42,1018.08,2024.00,801.48,1151.63,1289.04,600.20,593.16,52.13,0000 0000 0000 0000 000000
2017-03-24 08:48:39,0.71,15.24,1.00,24.97,27.09,30.37,14.41,51.54,1018.08,2024.00,799.23,1150.08,1287.17,600.21,593.19,52.18,0000 0000 0000 0000 000000
2017-03-24 08:53:41,0.88,15.28,1.00,24.86,27.07,30.36,14.37,51.51,1018.08,2024.01,796.57,1147.82,1284.67,599.84,593.03,52.23,0000 0000 0000 0000 000000
2017-03-24 08:58:42,0.65,15.32,1.00,24.95,27.07,30.36,14.35,51.57,1018.09,2024.00,794.50,1145.93,1282.59,599.82,592.81,52.28,0000 0000 0000 0000 000000
2017-03-24 09:03:43,0.68,15.36,1.00,24.98,27.07,30.35,14.45,51.60,1018.09,2024.00,792.43,1144.11,1280.58,600.12,592.93,52.34,0000 0000 0000 0000 000000
2017-03-24 09:08:45,0.66,15.39,1.00,24.99,27.07,30.34,14.38,51.51,1018.10,2024.00,790.48,1142.42,1278.78,599.83,592.75,52.39,0000 0000 0000 0000 000000
2017-03-24 09:13:46,0.58,15.42,1.00,24.97,27.07,30.34,14.38,51.49,1018.17,2024.00,788.72,1140.82,1277.12,599.94,592.86,52.44,0000 0000 0000 0000 000000
2017-03-24 09:18:47,0.50,15.44,1.00,25.00,27.05,30.34,14.44,51.54,1018.33,2024.00,787.22,1139.56,1275.62,599.63,592.59,52.49,0000 0000 0000 0000 000000
2017-03-24 09:23:49,0.81,15.48,1.00,25.01,27.05,30.34,14.34,51.55,1018.50,2024.00,784.99,1137.55,1273.45,599.76,592.91,52.54,0000 0000 0000 0000 000000
2017-03-24 09:28:50,0.82,15.52,1.00,24.94,27.05,30.35,14.45,51.48,1018.55,2024.00,782.59,1135.43,1271.13,600.13,593.40,52.59,0000 0000 0000 0000 000000
2017-03-24 09:33:51,0.80,15.56,1.00,24.96,27.05,30.35,14.41,51.58,1018.56,2024.00,780.18,1133.30,1268.73,600.20,593.42,52.64,0000 0000 0000 0000 000000
2017-03-24 09:38:52,0.73,15.60,1.00,24.97,27.04,30.34,14.45,51.58,1018.57,2024.00,778.10,1131.38,1266.67,599.78,593.03,52.69,0000 0000 0000 0000 000000
2017-03-24 09:43:54,0.63,15.64,1.00,24.93,27.03,30.36,14.39,51.58,1018.57,2024.00,776.20,1129.64,1264.70,599.69,592.96,52.74,0000 0000 0000 0000 000000
2017-03-24 09:48:55,0.47,15.67,1.00,24.94,27.02,30.35,14.46,51.53,1018.57,2024.00,774.75,1128.32,1263.35,600.01,593.27,52.79,0000 0000 0000 0000 000000
2017-03-24 09:53:57,0.30,15.68,1.00,24.97,27.02,30.34,14.33,51.44,1018.57,2024.01,773.85,1127.43,1262.24,599.68,593.01,52.84,0000 0000 0000 0000 000000
2017-03-24 09:58:58,0.16,15.70,1.00,24.96,27.02,30.34,14.43,51.53,1018.58,2024.00,773.05,1126.95,1261.79,600.03,593.21,52.89,0000 0000 0000 0000 000000
2017-03-24 10:04:00,0.33,15.71,1.00,24.96,27.02,30.35,14.38,51.52,1018.59,2024.00,772.17,1126.12,1261.01,599.62,592.92,52.94,0000 0000 0000 0000 000000
2017-03-24 10:09:01,0.33,15.72,1.00,24.98,27.01,30.33,14.47,51.41,1018.62,2024.00,771.32,1125.51,1260.19,600.15,593.42,52.99,0000 0000 0000 0000 000000
2017-03-24 10:14:02,0.62,15.75,1.00,24.96,27.00,30.33,14.40,51.42,1018.80,2024.01,769.60,1124.26,1258.81,599.86,593.25,53.04,0000 0000 0000 0000 000000
2017-03-24 10:19:04,1.49,15.81,1.00,24.94,27.00,30.33,14.36,51.48,1018.92,2024.03,764.64,1121.84,1256.18,600.01,593.42,53.09,0000 0000 0000 0000 000000
2017-03-24 10:24:05,1.60,15.89,1.00,24.94,27.00,30.33,14.43,51.50,1019.02,2024.01,758.74,1119.18,1253.22,600.11,593.63,53.14,0000 0000 0000 0000 000000
2017-03-24 10:29:07,1.16,15.96,1.00,24.92,27.00,30.32,14.44,51.49,1019.05,2024.00,754.00,1117.02,1250.83,599.80,593.33,53.20,0000 0000 0000 0000 000000
2017-03-24 10:34:08,1.32,16.02,1.00,24.93,27.00,30.33,14.42,51.44,1019.06,2024.01,749.12,1114.97,1248.48,599.86,593.51,53.25,0000 0000 0000 0000 000000
2017-03-24 10:39:09,1.21,16.09,1.00,24.93,26.99,30.33,14.45,51.48,1019.06,2024.01,744.55,1112.85,1246.24,599.58,593.18,53.30,0000 0000 0000 0000 000000
2017-03-24 10:44:11,0.43,16.12,1.00,24.92,26.98,30.32,14.30,51.42,1019.06,2024.01,742.35,1111.87,1245.04,599.95,593.42,53.35,0000 0000 0000 0000 000000
2017-03-24 10:49:12,0.35,16.14,1.00,24.88,26.97,30.31,14.44,51.43,1019.06,2024.05,741.27,1111.12,1244.30,599.94,593.67,53.40,0000 0000 0000 0000 000000
2017-03-24 10:54:13,0.10,16.15,1.00,24.91,26.97,30.32,14.40,51.42,1019.06,2024.03,740.70,1110.99,1243.99,599.76,593.46,53.45,0000 0000 0000 0000 000000
2017-03-24 10:59:14,0.25,16.16,1.00,24.90,26.97,30.32,14.53,51.49,1019.06,2024.03,740.02,1110.39,1243.43,600.24,593.89,53.50,0000 0000 0000 0000 000000
2017-03-24 11:04:15,0.10,16.17,1.00,24.90,26.97,30.31,14.40,51.47,1019.06,2024.06,739.76,1110.01,1243.01,599.91,593.65,53.55,0000 0000 0000 0000 000000
2017-03-24 11:09:17,0.13,16.18,1.00,24.91,26.97,30.30,14.36,51.45,1019.07,2024.04,739.05,1109.96,1242.83,599.53,593.38,53.60,0000 0000 0000 0000 000000
2017-03-24 11:14:18,0.19,16.18,1.00,24.92,26.97,30.30,14.40,51.61,1019.08,2024.05,738.85,1109.28,1242.09,599.96,593.70,53.65,0000 0000 0000 0000 000000
2017-03-24 11:19:19,0.17,16.19,1.00,24.89,26.96,30.31,14.40,51.52,1019.09,2024.05,738.06,1109.00,1241.85,599.69,593.43,53.70,0000 0000 0000 0000 000000
2017-03-24 11:24:20,0.27,16.20,1.00,24.90,26.95,30.30,14.46,51.61,1019.08,2024.03,737.53,1108.56,1241.09,600.15,593.88,53.75,0000 0000 0000 0000 000000
2017-03-24 11:29:21,0.09,16.21,0.50,24.90,26.95,30.30,14.42,51.41,1019.13,2024.06,736.98,1108.02,1240.94,600.10,593.75,53.80,0000 0000 0000 0000 000000
2017-03-24 11:34:22,0.28,16.22,0.00,24.90,26.95,30.32,14.38,51.49,1019.30,2024.07,736.25,1107.75,1240.13,600.10,593.90,53.85,0000 0000 0000 0000 000000
2017-03-24 11:39:24,0.23,16.23,0.00,24.89,26.95,30.31,14.42,51.55,1019.45,2024.05,735.70,1107.03,1239.67,599.86,593.74,53.90,0000 0000 0000 0000 000000
2017-03-24 11:44:25,0.43,16.25,0.00,24.88,26.95,30.31,14.43,51.53,1019.46,2024.04,734.46,1106.19,1238.66,600.09,593.98,53.95,0000 0000 0000 0000 000000
2017-03-24 11:49:26,0.50,16.28,0.00,24.89,26.95,30.31,14.45,51.48,1019.50,2024.04,732.96,1105.20,1237.54,600.09,594.07,54.00,0000 0000 0000 0000 000000
2017-03-24 11:54:28,0.49,16.31,0.00,24.87,26.95,30.32,14.43,51.59,1019.52,2024.04,731.37,1104.05,1236.27,599.91,593.83,54.05,0000 0000 0000 0000 000000
2017-03-24 11:59:30,0.40,16.33,0.00,24.87,26.95,30.31,14.49,51.53,1019.52,2024.05,730.11,1103.10,1235.21,600.04,594.06,54.10,0000 0000 0000 0000 000000
2017-03-24 12:04:31,0.37,16.35,0.00,24.87,26.95,30.31,14.49,51.42,1019.54,2024.07,729.02,1102.30,1234.33,599.94,593.99,54.16,0000 0000 0000 0000 000000
2017-03-24 12:09:33,0.44,16.37,0.00,24.87,26.95,30.32,14.40,51.54,1019.54,2024.02,727.84,1101.20,1233.18,599.82,593.89,54.21,0000 0000 0000 0000 000000
2017-03-24 12:14:34,0.30,16.38,0.00,24.86,26.95,30.31,14.41,51.48,1019.54,2024.02,726.91,1100.54,1232.36,600.12,594.24,54.26,0000 0000 0000 0000 000000
2017-03-24 12:19:36,0.26,16.40,0.00,24.85,26.95,30.31,14.44,51.48,1019.55,2024.03,726.02,1099.96,1231.67,600.14,594.13,54.31,0000 0000 0000 0000 000000
2017-03-24 12:24:37,0.37,16.42,0.00,24.88,26.95,30.33,14.39,51.47,1019.55,2024.02,725.03,1099.10,1230.76,599.90,593.86,54.36,0000 0000 0000 0000 000000
2017-03-24 12:29:38,0.39,16.44,0.00,24.88,26.94,30.32,14.42,51.48,1019.55,2024.03,723.90,1098.26,1229.83,599.64,593.64,54.41,0000 0000 0000 0000 000000
2017-03-24 12:34:40,0.35,16.46,0.00,24.86,26.94,30.32,14.51,51.59,1019.55,2024.03,722.87,1097.51,1228.97,600.40,594.44,54.46,0000 0000 0000 0000 000000
2017-03-24 12:39:41,0.43,16.47,0.00,24.86,26.93,30.33,14.41,51.44,1019.55,2024.05,721.73,1096.65,1228.03,599.78,594.02,54.51,0000 0000 0000 0000 000000
2017-03-24 12:44:42,0.29,15.39,0.00,24.85,26.93,30.34,12.65,45.27,1019.55,2024.50,913.10,1229.07,1381.56,531.69,529.13,0.00,0000 0000 0000 0000 000002
2017-03-24 12:49:43,0.37,0.00,0.00,24.82,26.95,30.34,14.44,48.78,1019.55,2030.98,3591.87,3088.76,3540.36,599.85,594.08,0.01,0000 0000 0000 0000 000000
2017-03-24 12:54:45,0.39,0.02,0.00,24.85,26.93,30.35,14.37,48.84,1019.55,2030.92,3577.17,3079.76,3530.96,600.10,593.99,0.06,0000 0000 0000 0000 000000